Location: Plainartige
(45.6866°N, 1.7993°E)
Time: 22:50:39
(UTC+00:00)

DIWATA 2B (PO-101) - Pass Details

Date: 07 July 2022
Orbit: 583 x 599 km, 98.0° (Epoch: 07 August)

Event Time Altitude Azimuth Distance (km) Brightness Sun altitude
Exits shadow 00:53:28 14° 120° (ESE) 1,713 ? -20.5°
Maximum altitude 00:56:23 28° 67° (ENE) 1,148 ? -20.4°
Drops below altitude 10° 00:59:58 10° 9° (N) 1,949 ? -20.3°
Sets 01:02:22 0° 357° (N) 2,855 ? -20.1°
